Minden, LA

7:26 AM CST on February 19, 2017 (GMT -0600)
Minden

Weather History for KMNE - March, 2013

Change the Weather History Date:

Tuesday, March 12, 2013

  Actual Average (KBAD) Record (KBAD)
Temperature  
Mean Temperature 49 °F -  
Max Temperature 67 °F 63 °F 86 °F (2006)
Min Temperature 31 °F 45 °F 24 °F (1998)
Degree Days  
Heating Degree Days 16    
Moisture  
Dew Point 30 °F    
Average Humidity 60    
Maximum Humidity 96    
Minimum Humidity 21    
Precipitation  
Precipitation 0.00 in - - ()
Sea Level Pressure  
Sea Level Pressure 30.17 in    
Wind  
Wind Speed 1 mph (North)    
Max Wind Speed 6 mph    
Max Gust Speed -    
Visibility 10 miles    
Events      
Averages and records for this station are not official NWS values.
T = Trace of Precipitation, MM = Missing Value Source: NWS Daily Summary

Daily Weather History Graph

Daily Weather History Graph

Search for Another Location

Airport or City:

Trip Planner

Search our weather history database for the weather conditions in past years. The results will help you decide how hot, cold, wet, or windy it might be!

Date:

Astronomy

Mar. 12, 2013 Rise Set
Actual Time 7:26 AM CDT 7:19 PM CDT
Civil Twilight 7:02 AM CDT 7:43 PM CDT
Nautical Twilight 6:33 AM CDT 8:12 PM CDT
Astronomical Twilight 6:05 AM CDT 8:40 PM CDT
Moon 7:39 AM CDT (3/12) 8:27 PM CDT (3/12)
Length of Visible Light 12h 41m
Length of Day
11h 52m
New Moon, 1% of the Moon is Illuminated
Mar 12
New Moon
Mar 19
First Quarter
Mar 27
Full
Apr 2
Last Quarter
Apr 10
New

Hourly Weather History & Observations

Time (CDT) Temp. Windchill Dew Point Humidity Pressure Visibility Wind Dir Wind Speed Gust Speed Precip Events Conditions
12:15 AM 36.7 °F - 34.2 °F 91% 30.09 in 10.0 mi Calm Calm - N/A   Clear
12:35 AM 36.1 °F - 33.8 °F 91% 30.09 in 10.0 mi Calm Calm - N/A   Clear
12:55 AM 36.3 °F - 34.2 °F 92% 30.09 in 10.0 mi Calm Calm - N/A   Clear
1:15 AM 36.0 °F - 33.8 °F 92% 30.09 in 10.0 mi Calm Calm - N/A   Clear
1:35 AM 35.1 °F - 33.1 °F 92% 30.09 in 10.0 mi Calm Calm - N/A   Clear
1:55 AM 34.9 °F - 32.9 °F 92% 30.10 in 10.0 mi Calm Calm - N/A   Clear
2:15 AM 34.3 °F - 32.7 °F 94% 30.10 in 10.0 mi Calm Calm - N/A   Clear
2:35 AM 34.9 °F - 33.1 °F 93% 30.09 in 10.0 mi Calm Calm - N/A   Clear
2:55 AM 34.2 °F - 32.4 °F 93% 30.09 in 10.0 mi Calm Calm - N/A   Clear
3:15 AM 34.0 °F - 32.4 °F 94% 30.09 in 10.0 mi Calm Calm - N/A   Clear
3:35 AM 33.4 °F - 32.0 °F 94% 30.09 in 10.0 mi Calm Calm - N/A   Clear
3:55 AM 33.8 °F - 32.2 °F 94% 30.08 in 10.0 mi Calm Calm - N/A   Clear
4:15 AM 33.3 °F - 32.0 °F 95% 30.08 in 10.0 mi Calm Calm - N/A   Clear
4:35 AM 32.9 °F - 32.0 °F 96% 30.09 in 10.0 mi Calm Calm - N/A   Clear
4:55 AM 32.7 °F - 31.5 °F 95% 30.10 in 10.0 mi Calm Calm - N/A   Clear
5:15 AM 32.5 °F - 31.5 °F 96% 30.11 in 10.0 mi Calm Calm - N/A   Clear
5:35 AM 32.5 °F - 31.6 °F 96% 30.10 in 10.0 mi Calm Calm - N/A   Clear
5:55 AM 32.2 °F - 31.3 °F 96% 30.10 in 10.0 mi Calm Calm - N/A   Clear
6:15 AM 32.4 °F - 31.3 °F 96% 30.11 in 10.0 mi Calm Calm - N/A   Clear
6:35 AM 31.5 °F 28.1 °F 29.8 °F 94% 30.12 in 10.0 mi NW 3.5 mph - N/A   Clear
6:55 AM 31.6 °F - 30.2 °F 94% 30.14 in 10.0 mi Calm Calm - N/A   Clear
7:15 AM 32.0 °F - 31.1 °F 96% 30.15 in 10.0 mi Calm Calm - N/A   Clear
7:35 AM 32.0 °F - 30.7 °F 95% 30.16 in 10.0 mi Calm Calm - N/A   Clear
7:55 AM 32.2 °F - 31.1 °F 96% 30.17 in 10.0 mi Calm Calm - N/A   Clear
8:15 AM 33.4 °F - 32.0 °F 94% 30.17 in 10.0 mi Calm Calm - N/A   Clear
8:35 AM 36.7 °F - 34.7 °F 93% 30.17 in 10.0 mi Calm Calm - N/A   Clear
8:55 AM 40.5 °F - 34.3 °F 79% 30.19 in 10.0 mi Calm Calm - N/A   Clear
9:15 AM 43.7 °F - 33.6 °F 68% 30.20 in 10.0 mi Calm Calm - N/A   Clear
9:35 AM 46.4 °F - 35.4 °F 66% 30.21 in 10.0 mi Calm Calm - N/A   Clear
9:55 AM 48.7 °F - 33.8 °F 56% 30.22 in 10.0 mi Calm Calm - N/A   Clear
10:15 AM 52.7 °F - 25.5 °F 35% 30.23 in 10.0 mi NE 5.8 mph - N/A   Clear
10:35 AM 53.8 °F - 23.0 °F 30% 30.24 in 10.0 mi ENE 5.8 mph - N/A   Clear
10:55 AM 55.2 °F - 19.8 °F 25% 30.24 in 10.0 mi ENE 5.8 mph - N/A   Clear
11:15 AM 56.3 °F - 21.6 °F 26% 30.25 in 10.0 mi ENE 3.5 mph - N/A   Clear
11:35 AM 55.6 °F - 20.7 °F 26% 30.24 in 10.0 mi Calm Calm - N/A   Clear
11:55 AM 57.6 °F - 21.9 °F 25% 30.25 in 10.0 mi East 3.5 mph - N/A   Clear
12:15 PM 58.1 °F - 20.5 °F 23% 30.25 in 10.0 mi NNE 3.5 mph - N/A   Clear
12:35 PM 58.8 °F - 22.1 °F 24% 30.24 in 10.0 mi West 3.5 mph - N/A   Clear
12:55 PM 59.2 °F - 20.8 °F 23% 30.24 in 10.0 mi Calm Calm - N/A   Clear
1:15 PM 60.6 °F - 22.1 °F 23% 30.23 in 10.0 mi NNE 3.5 mph - N/A   Clear
1:35 PM 61.0 °F - 22.8 °F 23% 30.22 in 10.0 mi North 5.8 mph - N/A   Clear
1:55 PM 61.9 °F - 23.2 °F 23% 30.21 in 10.0 mi NNW 4.6 mph - N/A   Clear
2:15 PM 63.5 °F - 24.1 °F 22% 30.20 in 10.0 mi NW 5.8 mph - N/A   Clear
2:35 PM 64.2 °F - 24.3 °F 22% 30.20 in 10.0 mi WNW 3.5 mph - N/A   Clear
2:55 PM 64.2 °F - 23.9 °F 22% 30.19 in 10.0 mi Calm Calm - N/A   Clear
3:15 PM 64.4 °F - 24.4 °F 22% 30.18 in 10.0 mi WNW 5.8 mph - N/A   Clear
3:35 PM 64.8 °F - 24.1 °F 21% 30.17 in 10.0 mi NW 4.6 mph - N/A   Clear
3:55 PM 66.2 °F - 25.0 °F 21% 30.17 in 10.0 mi NNE 4.6 mph - N/A   Clear
4:15 PM 65.1 °F - 25.2 °F 22% 30.16 in 10.0 mi Calm Calm - N/A   Clear
4:35 PM 66.7 °F - 25.9 °F 21% 30.16 in 10.0 mi Calm Calm - N/A   Clear
4:55 PM 67.1 °F - 25.3 °F 21% 30.16 in 10.0 mi Calm Calm - N/A   Clear
5:15 PM 66.4 °F - 25.7 °F 22% 30.15 in 10.0 mi Calm Calm - N/A   Clear
5:35 PM 66.4 °F - 25.7 °F 22% 30.15 in 10.0 mi North 3.5 mph - N/A   Clear
5:55 PM 66.4 °F - 26.1 °F 22% 30.16 in 10.0 mi NNW 3.5 mph - N/A   Clear
6:15 PM 66.2 °F - 25.2 °F 21% 30.16 in 10.0 mi Calm Calm - N/A   Clear
6:35 PM 65.3 °F - 24.8 °F 22% 30.16 in 10.0 mi Calm Calm - N/A   Clear
6:55 PM 64.2 °F - 26.2 °F 24% 30.17 in 10.0 mi Calm Calm - N/A   Clear
7:15 PM 60.3 °F - 33.1 °F 36% 30.17 in 10.0 mi Calm Calm - N/A   Clear
7:35 PM 58.3 °F - 33.8 °F 40% 30.18 in 10.0 mi Calm Calm - N/A   Clear
7:55 PM 54.5 °F - 37.0 °F 52% 30.20 in 10.0 mi Calm Calm - N/A   Clear
8:15 PM 52.7 °F - 36.5 °F 54% 30.21 in 10.0 mi Calm Calm - N/A   Clear
8:35 PM 52.2 °F - 36.0 °F 54% 30.22 in 10.0 mi Calm Calm - N/A   Clear
8:55 PM 50.2 °F - 37.2 °F 61% 30.23 in 10.0 mi Calm Calm - N/A   Clear
9:15 PM 48.2 °F - 38.1 °F 68% 30.23 in 10.0 mi Calm Calm - N/A   Clear
9:35 PM 48.0 °F - 37.2 °F 66% 30.24 in 10.0 mi Calm Calm - N/A   Clear
9:55 PM 47.1 °F - 38.3 °F 71% 30.25 in 10.0 mi Calm Calm - N/A   Clear
10:15 PM 45.5 °F - 38.3 °F 76% 30.26 in 10.0 mi Calm Calm - N/A   Clear
10:35 PM 46.0 °F - 38.1 °F 74% 30.26 in 10.0 mi Calm Calm - N/A   Clear
10:55 PM 45.9 °F - 37.9 °F 74% 30.26 in 10.0 mi Calm Calm - N/A   Clear
11:15 PM 44.6 °F - 38.3 °F 79% 30.27 in 10.0 mi Calm Calm - N/A   Clear
11:35 PM 44.1 °F - 38.5 °F 81% 30.28 in 10.0 mi Calm Calm - N/A   Clear
11:55 PM 42.8 °F - 37.9 °F 83% 30.28 in 10.0 mi Calm Calm - N/A   Clear